Location: Tamazert
(32.6352°N, 5.2072°W)
Time: 03:26:07
(UTC+00:00)

Vanguard 1 Rocket - Pass Details

Date: 14 October 2022
Orbit: 650 x 4225 km, 34.3° (Epoch: 05 December)

Event Time Altitude Azimuth Distance (km) Brightness Sun altitude
Rises 23:45:41 0° 289° (WNW) 7,135 12.1 -64.9°
Reaches altitude 10° 23:51:38 10° 283° (WNW) 5,517 11.4 -65.2°
Enters shadow 23:53:46 14° 280° (W) 4,923 11.1 -65.2°
Maximum altitude 00:04:17 37° 223° (SW) 2,448 - -65.4°
Drops below altitude 10° 00:11:22 10° 158° (SSE) 3,083 - -65.4°
Sets 00:13:44 0° 149° (SSE) 3,754 - -65.4°
